Weather History for KAKQ - February, 2013

Change the Weather History Date:

Sunday, February 3, 2013

  Actual Average (KJGG) Record (KJGG)
Temperature  
Mean Temperature 38 °F -  
Max Temperature 45 °F 53 °F 80 °F (1989)
Min Temperature 30 °F 29 °F 9 °F (1980)
Degree Days  
Heating Degree Days 28    
Moisture  
Dew Point 23 °F    
Average Humidity 55    
Maximum Humidity 72    
Minimum Humidity 38    
Precipitation  
Precipitation 0.00 in - - ()
Sea Level Pressure  
Sea Level Pressure 29.92 in    
Wind  
Wind Speed 2 mph (WNW)    
Max Wind Speed 6 mph    
Max Gust Speed -    
Visibility 10 miles    
Events      
Averages and records for this station are not official NWS values.
T = Trace of Precipitation, MM = Missing Value Source: NWS Daily Summary

Daily Weather History Graph

Daily Weather History Graph

Search for Another Location

Airport or City:

Trip Planner

Search our weather history database for the weather conditions in past years. The results will help you decide how hot, cold, wet, or windy it might be!

Date:

Astronomy

Feb. 03, 2013 Rise Set
Actual Time 7:08 AM EST 5:35 PM EST
Civil Twilight 6:41 AM EST 6:02 PM EST
Nautical Twilight 6:10 AM EST 6:33 PM EST
Astronomical Twilight 5:40 AM EST 7:04 PM EST
Moon 12:33 AM EST (2/3) 11:12 AM EST (2/3)
Length of Visible Light 11h 21m
Length of Day
10h 27m
Waning Gibbous, 49% of the Moon is Illuminated
Feb 3
Waning Gibbous
Feb 10
New
Feb 17
First Quarter
Feb 25
Full
Mar 4
Last Quarter

Hourly Weather History & Observations

Time (EST) Temp. Windchill Dew Point Humidity Pressure Visibility Wind Dir Wind Speed Gust Speed Precip Events Conditions
12:54 AM 36.0 °F - 17.1 °F 46% 30.01 in 10.0 mi Calm Calm - N/A   Overcast
1:54 AM 34.0 °F - 21.9 °F 61% 29.99 in 10.0 mi Calm Calm - N/A   Overcast
2:54 AM 36.0 °F - 21.0 °F 55% 29.96 in 10.0 mi Calm Calm - N/A   Overcast
3:54 AM 36.0 °F 33.3 °F 23.0 °F 59% 29.95 in 10.0 mi WSW 3.5 mph - N/A   Mostly Cloudy
4:54 AM 36.0 °F 33.3 °F 21.9 °F 57% 29.94 in 10.0 mi West 3.5 mph - N/A   Scattered Clouds
5:54 AM 30.9 °F - 23.0 °F 72% 29.94 in 10.0 mi Calm Calm - N/A   Scattered Clouds
7:54 AM 34.0 °F - 21.9 °F 61% 29.94 in 10.0 mi Calm Calm - N/A   Overcast
8:54 AM 35.1 °F 31.0 °F 23.0 °F 61% 29.95 in 10.0 mi NNE 4.6 mph - N/A   Overcast
9:54 AM 37.0 °F 33.3 °F 21.9 °F 54% 29.95 in 10.0 mi NNE 4.6 mph - N/A   Overcast
10:54 AM 39.0 °F - 23.0 °F 53% 29.94 in 10.0 mi Calm Calm - N/A   Overcast
11:54 AM 39.0 °F - 25.0 °F 57% 29.93 in 10.0 mi Calm Calm - N/A   Overcast
12:54 PM 41.0 °F 37.1 °F 26.1 °F 55% 29.89 in 10.0 mi Variable 5.8 mph - N/A   Mostly Cloudy
1:54 PM 44.1 °F 41.5 °F 25.0 °F 47% 29.86 in 10.0 mi Variable 4.6 mph - N/A   Mostly Cloudy
2:54 PM 44.1 °F 40.8 °F 24.1 °F 45% 29.84 in 10.0 mi West 5.8 mph - N/A   Mostly Cloudy
3:54 PM 45.0 °F 41.8 °F 21.9 °F 40% 29.85 in 10.0 mi West 5.8 mph - N/A   Overcast
4:54 PM 44.1 °F 41.5 °F 19.9 °F 38% 29.86 in 10.0 mi WNW 4.6 mph - N/A   Mostly Cloudy
5:54 PM 42.1 °F - 21.0 °F 43% 29.88 in 10.0 mi Calm Calm - N/A   Overcast
6:54 PM 39.9 °F 36.7 °F 23.0 °F 51% 29.90 in 10.0 mi WSW 4.6 mph - N/A   Mostly Cloudy
7:54 PM 37.0 °F 34.5 °F 24.1 °F 59% 29.91 in 10.0 mi WSW 3.5 mph - N/A   Clear
8:54 PM 37.0 °F 33.3 °F 26.1 °F 65% 29.94 in 10.0 mi West 4.6 mph - N/A   Clear
9:54 PM 36.0 °F 33.3 °F 26.1 °F 67% 29.94 in 10.0 mi West 3.5 mph - N/A   Clear
11:54 PM 34.0 °F - 19.9 °F 56% 29.98 in 10.0 mi Calm Calm - N/A   Clear